Date_Time,Julian_Date,Latitude,Longitude,Instrument_Depth,Water_Temperature
(yyyy-mm-dd hh:mn:ss UTC),(JD),(+ deg. North),(+ deg. East),(m),(deg. C)
1984-02-23 17:30:00 UTC,2445754.229167,28.7317,-95.2428,0036,13.8000
1984-02-23 18:00:00 UTC,2445754.250000,28.7317,-95.2428,0036,13.8000
1984-02-23 18:30:00 UTC,2445754.270833,28.7317,-95.2428,0036,13.8000
1984-02-23 19:00:00 UTC,2445754.291667,28.7317,-95.2428,0036,13.8000
1984-02-23 19:30:00 UTC,2445754.312500,28.7317,-95.2428,0036,13.8000
1984-02-23 20:00:00 UTC,2445754.333333,28.7317,-95.2428,0036,13.9000
1984-02-23 20:30:00 UTC,2445754.354167,28.7317,-95.2428,0036,13.9000
1984-02-23 21:00:00 UTC,2445754.375000,28.7317,-95.2428,0036,13.9000
1984-02-23 21:30:00 UTC,2445754.395833,28.7317,-95.2428,0036,13.9000
1984-02-23 22:00:00 UTC,2445754.416667,28.7317,-95.2428,0036,13.9000
1984-02-23 22:30:00 UTC,2445754.437500,28.7317,-95.2428,0036,13.9000
1984-02-23 23:00:00 UTC,2445754.458333,28.7317,-95.2428,0036,13.9000
1984-02-23 23:30:00 UTC,2445754.479167,28.7317,-95.2428,0036,13.9000
1984-02-24 00:00:00 UTC,2445754.500000,28.7317,-95.2428,0036,13.9000
1984-02-24 00:30:00 UTC,2445754.520833,28.7317,-95.2428,0036,13.9000
1984-02-24 01:00:00 UTC,2445754.541667,28.7317,-95.2428,0036,13.9000
1984-02-24 01:30:00 UTC,2445754.562500,28.7317,-95.2428,0036,13.9000
1984-02-24 02:00:00 UTC,2445754.583333,28.7317,-95.2428,0036,13.9000
1984-02-24 02:30:00 UTC,2445754.604167,28.7317,-95.2428,0036,13.9000
1984-02-24 03:00:00 UTC,2445754.625000,28.7317,-95.2428,0036,13.9000
1984-02-24 03:30:00 UTC,2445754.645833,28.7317,-95.2428,0036,13.9000
1984-02-24 04:00:00 UTC,2445754.666667,28.7317,-95.2428,0036,13.9000
1984-02-24 04:30:00 UTC,2445754.687500,28.7317,-95.2428,0036,13.9000
1984-02-24 05:00:00 UTC,2445754.708333,28.7317,-95.2428,0036,13.9000
1984-02-24 05:30:00 UTC,2445754.729167,28.7317,-95.2428,0036,13.9000
1984-02-24 06:00:00 UTC,2445754.750000,28.7317,-95.2428,0036,13.9000
1984-02-24 06:30:00 UTC,2445754.770833,28.7317,-95.2428,0036,13.9000
1984-02-24 07:00:00 UTC,2445754.791667,28.7317,-95.2428,0036,13.9000
1984-02-24 07:30:00 UTC,2445754.812500,28.7317,-95.2428,0036,13.9000
1984-02-24 08:00:00 UTC,2445754.833333,28.7317,-95.2428,0036,13.9000
1984-02-24 08:30:00 UTC,2445754.854167,28.7317,-95.2428,0036,13.9000
1984-02-24 09:00:00 UTC,2445754.875000,28.7317,-95.2428,0036,13.9000
1984-02-24 09:30:00 UTC,2445754.895833,28.7317,-95.2428,0036,13.9000
1984-02-24 10:00:00 UTC,2445754.916667,28.7317,-95.2428,0036,13.9000
1984-02-24 10:30:00 UTC,2445754.937500,28.7317,-95.2428,0036,13.9000
1984-02-24 11:00:00 UTC,2445754.958333,28.7317,-95.2428,0036,13.9000
1984-02-24 11:30:00 UTC,2445754.979167,28.7317,-95.2428,0036,13.9000
1984-02-24 12:00:00 UTC,2445755.000000,28.7317,-95.2428,0036,13.9000
1984-02-24 12:30:00 UTC,2445755.020833,28.7317,-95.2428,0036,13.9000
1984-02-24 13:00:00 UTC,2445755.041667,28.7317,-95.2428,0036,13.9000
1984-02-24 13:30:00 UTC,2445755.062500,28.7317,-95.2428,0036,13.9000
1984-02-24 14:00:00 UTC,2445755.083333,28.7317,-95.2428,0036,13.9000
1984-02-24 14:30:00 UTC,2445755.104167,28.7317,-95.2428,0036,13.9000
1984-02-24 15:00:00 UTC,2445755.125000,28.7317,-95.2428,0036,13.9000
1984-02-24 15:30:00 UTC,2445755.145833,28.7317,-95.2428,0036,13.9000
1984-02-24 16:00:00 UTC,2445755.166667,28.7317,-95.2428,0036,13.9000
1984-02-24 16:30:00 UTC,2445755.187500,28.7317,-95.2428,0036,13.9000
1984-02-24 17:00:00 UTC,2445755.208333,28.7317,-95.2428,0036,13.9000
1984-02-24 17:30:00 UTC,2445755.229167,28.7317,-95.2428,0036,13.9000
1984-02-24 18:00:00 UTC,2445755.250000,28.7317,-95.2428,0036,13.9000
1984-02-24 18:30:00 UTC,2445755.270833,28.7317,-95.2428,0036,13.9000
1984-02-24 19:00:00 UTC,2445755.291667,28.7317,-95.2428,0036,14.0000
1984-02-24 19:30:00 UTC,2445755.312500,28.7317,-95.2428,0036,14.0000
1984-02-24 20:00:00 UTC,2445755.333333,28.7317,-95.2428,0036,14.0000
1984-02-24 20:30:00 UTC,2445755.354167,28.7317,-95.2428,0036,14.0000
1984-02-24 21:00:00 UTC,2445755.375000,28.7317,-95.2428,0036,14.0000
1984-02-24 21:30:00 UTC,2445755.395833,28.7317,-95.2428,0036,14.0000
1984-02-24 22:00:00 UTC,2445755.416667,28.7317,-95.2428,0036,14.0000
1984-02-24 22:30:00 UTC,2445755.437500,28.7317,-95.2428,0036,14.1000
1984-02-24 23:00:00 UTC,2445755.458333,28.7317,-95.2428,0036,14.1000
1984-02-24 23:30:00 UTC,2445755.479167,28.7317,-95.2428,0036,14.1000
1984-02-25 00:00:00 UTC,2445755.500000,28.7317,-95.2428,0036,14.1000
1984-02-25 00:30:00 UTC,2445755.520833,28.7317,-95.2428,0036,14.1000
1984-02-25 01:00:00 UTC,2445755.541667,28.7317,-95.2428,0036,14.1000
1984-02-25 01:30:00 UTC,2445755.562500,28.7317,-95.2428,0036,14.2000
1984-02-25 02:00:00 UTC,2445755.583333,28.7317,-95.2428,0036,14.2000
1984-02-25 02:30:00 UTC,2445755.604167,28.7317,-95.2428,0036,14.3000
1984-02-25 03:00:00 UTC,2445755.625000,28.7317,-95.2428,0036,14.3000
1984-02-25 03:30:00 UTC,2445755.645833,28.7317,-95.2428,0036,14.3000
1984-02-25 04:00:00 UTC,2445755.666667,28.7317,-95.2428,0036,14.3000
1984-02-25 04:30:00 UTC,2445755.687500,28.7317,-95.2428,0036,14.4000
1984-02-25 05:00:00 UTC,2445755.708333,28.7317,-95.2428,0036,14.4000
1984-02-25 05:30:00 UTC,2445755.729167,28.7317,-95.2428,0036,14.4000
1984-02-25 06:00:00 UTC,2445755.750000,28.7317,-95.2428,0036,14.4000
1984-02-25 06:30:00 UTC,2445755.770833,28.7317,-95.2428,0036,14.4000
1984-02-25 07:00:00 UTC,2445755.791667,28.7317,-95.2428,0036,14.4000
1984-02-25 07:30:00 UTC,2445755.812500,28.7317,-95.2428,0036,14.4000
1984-02-25 08:00:00 UTC,2445755.833333,28.7317,-95.2428,0036,14.4000
1984-02-25 08:30:00 UTC,2445755.854167,28.7317,-95.2428,0036,14.5000
1984-02-25 09:00:00 UTC,2445755.875000,28.7317,-95.2428,0036,14.5000
1984-02-25 09:30:00 UTC,2445755.895833,28.7317,-95.2428,0036,14.5000
1984-02-25 10:00:00 UTC,2445755.916667,28.7317,-95.2428,0036,14.5000
1984-02-25 10:30:00 UTC,2445755.937500,28.7317,-95.2428,0036,14.5000
1984-02-25 11:00:00 UTC,2445755.958333,28.7317,-95.2428,0036,14.6000
1984-02-25 11:30:00 UTC,2445755.979167,28.7317,-95.2428,0036,14.6000
1984-02-25 12:00:00 UTC,2445756.000000,28.7317,-95.2428,0036,14.5000
1984-02-25 12:30:00 UTC,2445756.020833,28.7317,-95.2428,0036,14.5000
1984-02-25 13:00:00 UTC,2445756.041667,28.7317,-95.2428,0036,14.5000
1984-02-25 13:30:00 UTC,2445756.062500,28.7317,-95.2428,0036,14.5000
1984-02-25 14:00:00 UTC,2445756.083333,28.7317,-95.2428,0036,14.5000
1984-02-25 14:30:00 UTC,2445756.104167,28.7317,-95.2428,0036,14.5000
1984-02-25 15:00:00 UTC,2445756.125000,28.7317,-95.2428,0036,14.6000
1984-02-25 15:30:00 UTC,2445756.145833,28.7317,-95.2428,0036,14.6000
1984-02-25 16:00:00 UTC,2445756.166667,28.7317,-95.2428,0036,14.6000
1984-02-25 16:30:00 UTC,2445756.187500,28.7317,-95.2428,0036,14.6000
1984-02-25 17:00:00 UTC,2445756.208333,28.7317,-95.2428,0036,14.6000
1984-02-25 17:30:00 UTC,2445756.229167,28.7317,-95.2428,0036,14.6000
1984-02-25 18:00:00 UTC,2445756.250000,28.7317,-95.2428,0036,14.6000
1984-02-25 18:30:00 UTC,2445756.270833,28.7317,-95.2428,0036,14.6000
1984-02-25 19:00:00 UTC,2445756.291667,28.7317,-95.2428,0036,14.6000
1984-02-25 19:30:00 UTC,2445756.312500,28.7317,-95.2428,0036,14.5000
1984-02-25 20:00:00 UTC,2445756.333333,28.7317,-95.2428,0036,14.6000
1984-02-25 20:30:00 UTC,2445756.354167,28.7317,-95.2428,0036,14.6000
1984-02-25 21:00:00 UTC,2445756.375000,28.7317,-95.2428,0036,14.7000
1984-02-25 21:30:00 UTC,2445756.395833,28.7317,-95.2428,0036,14.7000
1984-02-25 22:00:00 UTC,2445756.416667,28.7317,-95.2428,0036,14.8000
1984-02-25 22:30:00 UTC,2445756.437500,28.7317,-95.2428,0036,14.8000
1984-02-25 23:00:00 UTC,2445756.458333,28.7317,-95.2428,0036,14.9000
1984-02-25 23:30:00 UTC,2445756.479167,28.7317,-95.2428,0036,14.9000
1984-02-26 00:00:00 UTC,2445756.500000,28.7317,-95.2428,0036,14.9000
1984-02-26 00:30:00 UTC,2445756.520833,28.7317,-95.2428,0036,14.9000
1984-02-26 01:00:00 UTC,2445756.541667,28.7317,-95.2428,0036,14.8000
1984-02-26 01:30:00 UTC,2445756.562500,28.7317,-95.2428,0036,14.8000
1984-02-26 02:00:00 UTC,2445756.583333,28.7317,-95.2428,0036,14.8000
1984-02-26 02:30:00 UTC,2445756.604167,28.7317,-95.2428,0036,14.8000
1984-02-26 03:00:00 UTC,2445756.625000,28.7317,-95.2428,0036,14.7000
1984-02-26 03:30:00 UTC,2445756.645833,28.7317,-95.2428,0036,14.7000
1984-02-26 04:00:00 UTC,2445756.666667,28.7317,-95.2428,0036,14.7000
1984-02-26 04:30:00 UTC,2445756.687500,28.7317,-95.2428,0036,14.7000
1984-02-26 05:00:00 UTC,2445756.708333,28.7317,-95.2428,0036,14.7000
1984-02-26 05:30:00 UTC,2445756.729167,28.7317,-95.2428,0036,14.7000
1984-02-26 06:00:00 UTC,2445756.750000,28.7317,-95.2428,0036,14.6000
1984-02-26 06:30:00 UTC,2445756.770833,28.7317,-95.2428,0036,14.6000
1984-02-26 07:00:00 UTC,2445756.791667,28.7317,-95.2428,0036,14.6000
1984-02-26 07:30:00 UTC,2445756.812500,28.7317,-95.2428,0036,14.6000
1984-02-26 08:00:00 UTC,2445756.833333,28.7317,-95.2428,0036,14.6000
1984-02-26 08:30:00 UTC,2445756.854167,28.7317,-95.2428,0036,14.5000
1984-02-26 09:00:00 UTC,2445756.875000,28.7317,-95.2428,0036,14.5000
1984-02-26 09:30:00 UTC,2445756.895833,28.7317,-95.2428,0036,14.5000
1984-02-26 10:00:00 UTC,2445756.916667,28.7317,-95.2428,0036,14.5000
1984-02-26 10:30:00 UTC,2445756.937500,28.7317,-95.2428,0036,14.5000
1984-02-26 11:00:00 UTC,2445756.958333,28.7317,-95.2428,0036,14.5000
1984-02-26 11:30:00 UTC,2445756.979167,28.7317,-95.2428,0036,14.5000
1984-02-26 12:00:00 UTC,2445757.000000,28.7317,-95.2428,0036,14.5000
1984-02-26 12:30:00 UTC,2445757.020833,28.7317,-95.2428,0036,14.5000
1984-02-26 13:00:00 UTC,2445757.041667,28.7317,-95.2428,0036,14.5000
1984-02-26 13:30:00 UTC,2445757.062500,28.7317,-95.2428,0036,14.5000
1984-02-26 14:00:00 UTC,2445757.083333,28.7317,-95.2428,0036,14.5000
1984-02-26 14:30:00 UTC,2445757.104167,28.7317,-95.2428,0036,14.6000
1984-02-26 15:00:00 UTC,2445757.125000,28.7317,-95.2428,0036,14.6000
1984-02-26 15:30:00 UTC,2445757.145833,28.7317,-95.2428,0036,14.6000
1984-02-26 16:00:00 UTC,2445757.166667,28.7317,-95.2428,0036,14.6000
1984-02-26 16:30:00 UTC,2445757.187500,28.7317,-95.2428,0036,14.6000
1984-02-26 17:00:00 UTC,2445757.208333,28.7317,-95.2428,0036,14.6000
1984-02-26 17:30:00 UTC,2445757.229167,28.7317,-95.2428,0036,14.6000
1984-02-26 18:00:00 UTC,2445757.250000,28.7317,-95.2428,0036,14.6000
1984-02-26 18:30:00 UTC,2445757.270833,28.7317,-95.2428,0036,14.7000
1984-02-26 19:00:00 UTC,2445757.291667,28.7317,-95.2428,0036,14.7000
1984-02-26 19:30:00 UTC,2445757.312500,28.7317,-95.2428,0036,14.7000
1984-02-26 20:00:00 UTC,2445757.333333,28.7317,-95.2428,0036,14.7000
1984-02-26 20:30:00 UTC,2445757.354167,28.7317,-95.2428,0036,14.7000
1984-02-26 21:00:00 UTC,2445757.375000,28.7317,-95.2428,0036,14.7000
1984-02-26 21:30:00 UTC,2445757.395833,28.7317,-95.2428,0036,14.7000
1984-02-26 22:00:00 UTC,2445757.416667,28.7317,-95.2428,0036,14.7000
1984-02-26 22:30:00 UTC,2445757.437500,28.7317,-95.2428,0036,14.7000
1984-02-26 23:00:00 UTC,2445757.458333,28.7317,-95.2428,0036,14.8000
1984-02-26 23:30:00 UTC,2445757.479167,28.7317,-95.2428,0036,14.8000
1984-02-27 00:00:00 UTC,2445757.500000,28.7317,-95.2428,0036,14.9000
1984-02-27 00:30:00 UTC,2445757.520833,28.7317,-95.2428,0036,14.9000
1984-02-27 01:00:00 UTC,2445757.541667,28.7317,-95.2428,0036,14.9000
1984-02-27 01:30:00 UTC,2445757.562500,28.7317,-95.2428,0036,14.9000
1984-02-27 02:00:00 UTC,2445757.583333,28.7317,-95.2428,0036,14.9000
1984-02-27 02:30:00 UTC,2445757.604167,28.7317,-95.2428,0036,14.9000
1984-02-27 03:00:00 UTC,2445757.625000,28.7317,-95.2428,0036,14.9000
1984-02-27 03:30:00 UTC,2445757.645833,28.7317,-95.2428,0036,14.9000
1984-02-27 04:00:00 UTC,2445757.666667,28.7317,-95.2428,0036,14.9000
1984-02-27 04:30:00 UTC,2445757.687500,28.7317,-95.2428,0036,14.8000
1984-02-27 05:00:00 UTC,2445757.708333,28.7317,-95.2428,0036,14.7000
1984-02-27 05:30:00 UTC,2445757.729167,28.7317,-95.2428,0036,14.7000
1984-02-27 06:00:00 UTC,2445757.750000,28.7317,-95.2428,0036,14.6000
1984-02-27 06:30:00 UTC,2445757.770833,28.7317,-95.2428,0036,14.5000
1984-02-27 07:00:00 UTC,2445757.791667,28.7317,-95.2428,0036,14.5000
1984-02-27 07:30:00 UTC,2445757.812500,28.7317,-95.2428,0036,14.4000
1984-02-27 08:00:00 UTC,2445757.833333,28.7317,-95.2428,0036,14.3000
1984-02-27 08:30:00 UTC,2445757.854167,28.7317,-95.2428,0036,14.3000
1984-02-27 09:00:00 UTC,2445757.875000,28.7317,-95.2428,0036,14.2000
1984-02-27 09:30:00 UTC,2445757.895833,28.7317,-95.2428,0036,14.2000
1984-02-27 10:00:00 UTC,2445757.916667,28.7317,-95.2428,0036,14.2000
1984-02-27 10:30:00 UTC,2445757.937500,28.7317,-95.2428,0036,14.2000
1984-02-27 11:00:00 UTC,2445757.958333,28.7317,-95.2428,0036,14.1000
1984-02-27 11:30:00 UTC,2445757.979167,28.7317,-95.2428,0036,14.1000
1984-02-27 12:00:00 UTC,2445758.000000,28.7317,-95.2428,0036,14.1000
1984-02-27 12:30:00 UTC,2445758.020833,28.7317,-95.2428,0036,14.1000
1984-02-27 13:00:00 UTC,2445758.041667,28.7317,-95.2428,0036,14.1000
1984-02-27 13:30:00 UTC,2445758.062500,28.7317,-95.2428,0036,14.2000
1984-02-27 14:00:00 UTC,2445758.083333,28.7317,-95.2428,0036,14.2000
1984-02-27 14:30:00 UTC,2445758.104167,28.7317,-95.2428,0036,14.3000
1984-02-27 15:00:00 UTC,2445758.125000,28.7317,-95.2428,0036,14.4000
1984-02-27 15:30:00 UTC,2445758.145833,28.7317,-95.2428,0036,14.9000
1984-02-27 16:00:00 UTC,2445758.166667,28.7317,-95.2428,0036,16.0000
1984-02-27 16:30:00 UTC,2445758.187500,28.7317,-95.2428,0036,16.7000
1984-02-27 17:00:00 UTC,2445758.208333,28.7317,-95.2428,0036,16.9000
1984-02-27 17:30:00 UTC,2445758.229167,28.7317,-95.2428,0036,17.0000
1984-02-27 18:00:00 UTC,2445758.250000,28.7317,-95.2428,0036,17.0000
1984-02-27 18:30:00 UTC,2445758.270833,28.7317,-95.2428,0036,17.0000
1984-02-27 19:00:00 UTC,2445758.291667,28.7317,-95.2428,0036,16.9000
1984-02-27 19:30:00 UTC,2445758.312500,28.7317,-95.2428,0036,16.8000
1984-02-27 20:00:00 UTC,2445758.333333,28.7317,-95.2428,0036,16.7000
1984-02-27 20:30:00 UTC,2445758.354167,28.7317,-95.2428,0036,16.6000
1984-02-27 21:00:00 UTC,2445758.375000,28.7317,-95.2428,0036,16.4000
1984-02-27 21:30:00 UTC,2445758.395833,28.7317,-95.2428,0036,16.2000
1984-02-27 22:00:00 UTC,2445758.416667,28.7317,-95.2428,0036,16.1000
1984-02-27 22:30:00 UTC,2445758.437500,28.7317,-95.2428,0036,16.0000
1984-02-27 23:00:00 UTC,2445758.458333,28.7317,-95.2428,0036,15.7000
1984-02-27 23:30:00 UTC,2445758.479167,28.7317,-95.2428,0036,15.5000
1984-02-28 00:00:00 UTC,2445758.500000,28.7317,-95.2428,0036,15.3000
1984-02-28 00:30:00 UTC,2445758.520833,28.7317,-95.2428,0036,15.2000
1984-02-28 01:00:00 UTC,2445758.541667,28.7317,-95.2428,0036,15.1000
1984-02-28 01:30:00 UTC,2445758.562500,28.7317,-95.2428,0036,15.1000
1984-02-28 02:00:00 UTC,2445758.583333,28.7317,-95.2428,0036,15.1000
1984-02-28 02:30:00 UTC,2445758.604167,28.7317,-95.2428,0036,15.1000
1984-02-28 03:00:00 UTC,2445758.625000,28.7317,-95.2428,0036,15.1000
1984-02-28 03:30:00 UTC,2445758.645833,28.7317,-95.2428,0036,15.1000
1984-02-28 04:00:00 UTC,2445758.666667,28.7317,-95.2428,0036,15.1000
1984-02-28 04:30:00 UTC,2445758.687500,28.7317,-95.2428,0036,15.1000
1984-02-28 05:00:00 UTC,2445758.708333,28.7317,-95.2428,0036,15.1000
1984-02-28 05:30:00 UTC,2445758.729167,28.7317,-95.2428,0036,15.0000
1984-02-28 06:00:00 UTC,2445758.750000,28.7317,-95.2428,0036,15.0000
1984-02-28 06:30:00 UTC,2445758.770833,28.7317,-95.2428,0036,15.0000
1984-02-28 07:00:00 UTC,2445758.791667,28.7317,-95.2428,0036,14.9000
1984-02-28 07:30:00 UTC,2445758.812500,28.7317,-95.2428,0036,14.9000
1984-02-28 08:00:00 UTC,2445758.833333,28.7317,-95.2428,0036,14.9000
1984-02-28 08:30:00 UTC,2445758.854167,28.7317,-95.2428,0036,14.9000
1984-02-28 09:00:00 UTC,2445758.875000,28.7317,-95.2428,0036,14.9000
1984-02-28 09:30:00 UTC,2445758.895833,28.7317,-95.2428,0036,14.9000
1984-02-28 10:00:00 UTC,2445758.916667,28.7317,-95.2428,0036,14.9000
1984-02-28 10:30:00 UTC,2445758.937500,28.7317,-95.2428,0036,14.9000
1984-02-28 11:00:00 UTC,2445758.958333,28.7317,-95.2428,0036,14.9000
1984-02-28 11:30:00 UTC,2445758.979167,28.7317,-95.2428,0036,14.9000
1984-02-28 12:00:00 UTC,2445759.000000,28.7317,-95.2428,0036,14.9000
1984-02-28 12:30:00 UTC,2445759.020833,28.7317,-95.2428,0036,14.9000
1984-02-28 13:00:00 UTC,2445759.041667,28.7317,-95.2428,0036,14.9000
1984-02-28 13:30:00 UTC,2445759.062500,28.7317,-95.2428,0036,14.9000
1984-02-28 14:00:00 UTC,2445759.083333,28.7317,-95.2428,0036,14.9000
1984-02-28 14:30:00 UTC,2445759.104167,28.7317,-95.2428,0036,14.9000
1984-02-28 15:00:00 UTC,2445759.125000,28.7317,-95.2428,0036,14.9000
1984-02-28 15:30:00 UTC,2445759.145833,28.7317,-95.2428,0036,14.9000
1984-02-28 16:00:00 UTC,2445759.166667,28.7317,-95.2428,0036,15.0000
1984-02-28 16:30:00 UTC,2445759.187500,28.7317,-95.2428,0036,15.0000
1984-02-28 17:00:00 UTC,2445759.208333,28.7317,-95.2428,0036,15.0000
1984-02-28 17:30:00 UTC,2445759.229167,28.7317,-95.2428,0036,15.0000
1984-02-28 18:00:00 UTC,2445759.250000,28.7317,-95.2428,0036,15.0000
1984-02-28 18:30:00 UTC,2445759.270833,28.7317,-95.2428,0036,15.1000
1984-02-28 19:00:00 UTC,2445759.291667,28.7317,-95.2428,0036,15.1000
1984-02-28 19:30:00 UTC,2445759.312500,28.7317,-95.2428,0036,15.1000
1984-02-28 20:00:00 UTC,2445759.333333,28.7317,-95.2428,0036,15.1000
1984-02-28 20:30:00 UTC,2445759.354167,28.7317,-95.2428,0036,15.1000
1984-02-28 21:00:00 UTC,2445759.375000,28.7317,-95.2428,0036,15.2000
1984-02-28 21:30:00 UTC,2445759.395833,28.7317,-95.2428,0036,15.2000
1984-02-28 22:00:00 UTC,2445759.416667,28.7317,-95.2428,0036,15.2000
1984-02-28 22:30:00 UTC,2445759.437500,28.7317,-95.2428,0036,15.1000
1984-02-28 23:00:00 UTC,2445759.458333,28.7317,-95.2428,0036,15.1000
1984-02-28 23:30:00 UTC,2445759.479167,28.7317,-95.2428,0036,15.1000
1984-02-29 00:00:00 UTC,2445759.500000,28.7317,-95.2428,0036,15.1000
1984-02-29 00:30:00 UTC,2445759.520833,28.7317,-95.2428,0036,15.1000
1984-02-29 01:00:00 UTC,2445759.541667,28.7317,-95.2428,0036,15.2000
1984-02-29 01:30:00 UTC,2445759.562500,28.7317,-95.2428,0036,15.1000
1984-02-29 02:00:00 UTC,2445759.583333,28.7317,-95.2428,0036,15.1000
1984-02-29 02:30:00 UTC,2445759.604167,28.7317,-95.2428,0036,15.0000
1984-02-29 03:00:00 UTC,2445759.625000,28.7317,-95.2428,0036,15.0000
1984-02-29 03:30:00 UTC,2445759.645833,28.7317,-95.2428,0036,14.9000
1984-02-29 04:00:00 UTC,2445759.666667,28.7317,-95.2428,0036,14.8000
1984-02-29 04:30:00 UTC,2445759.687500,28.7317,-95.2428,0036,14.7000
1984-02-29 05:00:00 UTC,2445759.708333,28.7317,-95.2428,0036,14.6000
1984-02-29 05:30:00 UTC,2445759.729167,28.7317,-95.2428,0036,14.5000
1984-02-29 06:00:00 UTC,2445759.750000,28.7317,-95.2428,0036,14.5000
1984-02-29 06:30:00 UTC,2445759.770833,28.7317,-95.2428,0036,14.4000
1984-02-29 07:00:00 UTC,2445759.791667,28.7317,-95.2428,0036,14.3000
1984-02-29 07:30:00 UTC,2445759.812500,28.7317,-95.2428,0036,14.3000
1984-02-29 08:00:00 UTC,2445759.833333,28.7317,-95.2428,0036,14.3000
1984-02-29 08:30:00 UTC,2445759.854167,28.7317,-95.2428,0036,14.3000
1984-02-29 09:00:00 UTC,2445759.875000,28.7317,-95.2428,0036,14.3000
1984-02-29 09:30:00 UTC,2445759.895833,28.7317,-95.2428,0036,14.3000
1984-02-29 10:00:00 UTC,2445759.916667,28.7317,-95.2428,0036,14.3000
1984-02-29 10:30:00 UTC,2445759.937500,28.7317,-95.2428,0036,14.3000
1984-02-29 11:00:00 UTC,2445759.958333,28.7317,-95.2428,0036,14.3000
1984-02-29 11:30:00 UTC,2445759.979167,28.7317,-95.2428,0036,14.2000
1984-02-29 12:00:00 UTC,2445760.000000,28.7317,-95.2428,0036,14.2000
1984-02-29 12:30:00 UTC,2445760.020833,28.7317,-95.2428,0036,14.2000
1984-02-29 13:00:00 UTC,2445760.041667,28.7317,-95.2428,0036,14.2000
1984-02-29 13:30:00 UTC,2445760.062500,28.7317,-95.2428,0036,14.2000
1984-02-29 14:00:00 UTC,2445760.083333,28.7317,-95.2428,0036,14.2000
1984-02-29 14:30:00 UTC,2445760.104167,28.7317,-95.2428,0036,14.2000
1984-02-29 15:00:00 UTC,2445760.125000,28.7317,-95.2428,0036,14.2000
1984-02-29 15:30:00 UTC,2445760.145833,28.7317,-95.2428,0036,14.2000
1984-02-29 16:00:00 UTC,2445760.166667,28.7317,-95.2428,0036,14.2000
1984-02-29 16:30:00 UTC,2445760.187500,28.7317,-95.2428,0036,14.2000
1984-02-29 17:00:00 UTC,2445760.208333,28.7317,-95.2428,0036,14.2000
1984-02-29 17:30:00 UTC,2445760.229167,28.7317,-95.2428,0036,14.2000
1984-02-29 18:00:00 UTC,2445760.250000,28.7317,-95.2428,0036,14.3000
1984-02-29 18:30:00 UTC,2445760.270833,28.7317,-95.2428,0036,14.3000
1984-02-29 19:00:00 UTC,2445760.291667,28.7317,-95.2428,0036,14.3000
1984-02-29 19:30:00 UTC,2445760.312500,28.7317,-95.2428,0036,14.3000
1984-02-29 20:00:00 UTC,2445760.333333,28.7317,-95.2428,0036,14.3000
1984-02-29 20:30:00 UTC,2445760.354167,28.7317,-95.2428,0036,14.3000
1984-02-29 21:00:00 UTC,2445760.375000,28.7317,-95.2428,0036,14.3000
1984-02-29 21:30:00 UTC,2445760.395833,28.7317,-95.2428,0036,14.3000
1984-02-29 22:00:00 UTC,2445760.416667,28.7317,-95.2428,0036,14.3000
1984-02-29 22:30:00 UTC,2445760.437500,28.7317,-95.2428,0036,14.3000
1984-02-29 23:00:00 UTC,2445760.458333,28.7317,-95.2428,0036,14.3000
1984-02-29 23:30:00 UTC,2445760.479167,28.7317,-95.2428,0036,14.3000
1984-03-01 00:00:00 UTC,2445760.500000,28.7317,-95.2428,0036,14.4000
1984-03-01 00:30:00 UTC,2445760.520833,28.7317,-95.2428,0036,14.4000
1984-03-01 01:00:00 UTC,2445760.541667,28.7317,-95.2428,0036,14.4000
1984-03-01 01:30:00 UTC,2445760.562500,28.7317,-95.2428,0036,14.3000
1984-03-01 02:00:00 UTC,2445760.583333,28.7317,-95.2428,0036,14.3000
1984-03-01 02:30:00 UTC,2445760.604167,28.7317,-95.2428,0036,14.3000
1984-03-01 03:00:00 UTC,2445760.625000,28.7317,-95.2428,0036,14.3000
1984-03-01 03:30:00 UTC,2445760.645833,28.7317,-95.2428,0036,14.4000
1984-03-01 04:00:00 UTC,2445760.666667,28.7317,-95.2428,0036,14.4000
1984-03-01 04:30:00 UTC,2445760.687500,28.7317,-95.2428,0036,14.4000
1984-03-01 05:00:00 UTC,2445760.708333,28.7317,-95.2428,0036,14.4000
1984-03-01 05:30:00 UTC,2445760.729167,28.7317,-95.2428,0036,14.4000
1984-03-01 06:00:00 UTC,2445760.750000,28.7317,-95.2428,0036,14.4000
1984-03-01 06:30:00 UTC,2445760.770833,28.7317,-95.2428,0036,14.4000
1984-03-01 07:00:00 UTC,2445760.791667,28.7317,-95.2428,0036,14.3000
1984-03-01 07:30:00 UTC,2445760.812500,28.7317,-95.2428,0036,14.3000
1984-03-01 08:00:00 UTC,2445760.833333,28.7317,-95.2428,0036,14.3000
1984-03-01 08:30:00 UTC,2445760.854167,28.7317,-95.2428,0036,14.3000
1984-03-01 09:00:00 UTC,2445760.875000,28.7317,-95.2428,0036,14.3000
1984-03-01 09:30:00 UTC,2445760.895833,28.7317,-95.2428,0036,14.3000
1984-03-01 10:00:00 UTC,2445760.916667,28.7317,-95.2428,0036,14.2000
1984-03-01 10:30:00 UTC,2445760.937500,28.7317,-95.2428,0036,14.2000
1984-03-01 11:00:00 UTC,2445760.958333,28.7317,-95.2428,0036,14.2000
1984-03-01 11:30:00 UTC,2445760.979167,28.7317,-95.2428,0036,14.2000
1984-03-01 12:00:00 UTC,2445761.000000,28.7317,-95.2428,0036,14.2000
1984-03-01 12:30:00 UTC,2445761.020833,28.7317,-95.2428,0036,14.2000
1984-03-01 13:00:00 UTC,2445761.041667,28.7317,-95.2428,0036,14.2000
1984-03-01 13:30:00 UTC,2445761.062500,28.7317,-95.2428,0036,14.2000
1984-03-01 14:00:00 UTC,2445761.083333,28.7317,-95.2428,0036,14.2000
1984-03-01 14:30:00 UTC,2445761.104167,28.7317,-95.2428,0036,14.2000
1984-03-01 15:00:00 UTC,2445761.125000,28.7317,-95.2428,0036,14.2000
1984-03-01 15:30:00 UTC,2445761.145833,28.7317,-95.2428,0036,14.2000
1984-03-01 16:00:00 UTC,2445761.166667,28.7317,-95.2428,0036,14.2000
1984-03-01 16:30:00 UTC,2445761.187500,28.7317,-95.2428,0036,14.2000
1984-03-01 17:00:00 UTC,2445761.208333,28.7317,-95.2428,0036,14.3000
1984-03-01 17:30:00 UTC,2445761.229167,28.7317,-95.2428,0036,14.3000
1984-03-01 18:00:00 UTC,2445761.250000,28.7317,-95.2428,0036,14.3000
1984-03-01 18:30:00 UTC,2445761.270833,28.7317,-95.2428,0036,14.3000
1984-03-01 19:00:00 UTC,2445761.291667,28.7317,-95.2428,0036,14.4000
1984-03-01 19:30:00 UTC,2445761.312500,28.7317,-95.2428,0036,14.4000
1984-03-01 20:00:00 UTC,2445761.333333,28.7317,-95.2428,0036,14.4000
1984-03-01 20:30:00 UTC,2445761.354167,28.7317,-95.2428,0036,14.4000
1984-03-01 21:00:00 UTC,2445761.375000,28.7317,-95.2428,0036,14.5000
1984-03-01 21:30:00 UTC,2445761.395833,28.7317,-95.2428,0036,14.5000